PBO Station Position Time Series. Reference Frame : NAM14
Format Version,1.1.1
4-character ID,NORM
Station name,North_of_Rim
Begin Date, 2020-12-27
End Date, 2023-06-26
Release Date, 2023-06-27
Reference position, 43.7388760197 North Latitude, -121.2527207108 East Longitude, 2161.36813 meters elevation,
Date, North (mm), East (mm), Vertical (mm), North Std. Deviation (mm), East Std. Deviation (mm),              Vertical Std. Deviation (mm), Quality,
2020-12-27,0.00, 0.00, 0.00, 2.48, 1.88, 8.25, suppf,
2020-12-28,0.04, -1.33, 2.29, 2.47, 1.87, 8.20, suppf,
2020-12-29,-0.32, -0.80, 1.14, 2.46, 1.87, 8.20, suppf,
2020-12-30,-0.05, -1.09, -0.78, 2.41, 1.85, 8.04, suppf,
2020-12-31,-0.88, -0.46, 5.68, 2.41, 1.85, 8.02, suppf,
2021-01-01,-0.66, 0.22, 6.74, 2.47, 1.87, 8.23, suppf,
2021-01-02,-0.95, 1.41, 6.77, 2.47, 1.88, 8.24, suppf,
2021-01-03,-1.59, 1.33, 12.77, 2.45, 1.87, 8.22, suppf,
2021-01-04,-4.96, 2.54, 19.41, 2.47, 1.91, 8.43, suppf,
2021-01-05,-1.56, 3.02, 6.41, 2.49, 1.91, 8.52, suppf,
2021-01-06,-2.04, 2.85, 9.91, 2.47, 1.89, 8.32, suppf,
2021-01-07,-0.62, 1.25, 3.63, 2.42, 1.85, 8.08, suppf,
2021-01-08,0.44, -0.07, -7.43, 2.45, 1.86, 8.17, suppf,
2021-01-09,-0.31, 0.20, -4.29, 2.45, 1.86, 8.13, suppf,
2021-01-10,-0.24, -0.63, -7.30, 2.43, 1.86, 8.08, suppf,
2021-01-11,-0.87, -0.19, -5.15, 2.46, 1.87, 8.25, suppf,
2021-01-12,0.08, 0.67, 7.36, 2.52, 1.89, 8.39, suppf,
2021-01-13,-1.28, 0.31, 20.81, 2.49, 1.90, 8.37, suppf,
2021-01-14,-0.91, 1.05, -5.04, 2.48, 1.89, 8.31, suppf,
2021-01-15,-1.23, 0.68, 9.79, 2.47, 1.88, 8.28, suppf,
2021-01-16,0.78, 0.73, -1.99, 2.45, 1.88, 8.23, suppf,
2021-01-17,-0.41, -0.03, -5.18, 2.44, 1.87, 8.23, suppf,
2021-01-18,-0.81, -0.89, -2.00, 2.48, 1.88, 8.31, suppf,
2021-01-19,-0.09, -0.68, -2.69, 2.47, 1.87, 8.17, suppf,
2021-01-20,-0.20, -0.12, -1.83, 2.57, 1.95, 8.62, suppf,
2021-01-21,0.80, 0.83, 0.21, 2.52, 1.93, 8.52, suppf,
2021-01-22,0.83, 0.05, 0.64, 2.47, 1.88, 8.26, suppf,
2021-01-23,1.22, 0.90, 2.42, 2.48, 1.88, 8.29, suppf,
2021-01-24,0.25, -1.09, -1.00, 2.46, 1.86, 8.18, suppf,
2021-01-25,-0.39, 0.48, 5.96, 2.45, 1.87, 8.17, suppf,
2021-01-26,-0.24, -0.15, 4.78, 2.47, 1.89, 8.24, suppf,
2021-01-27,-1.84, 0.65, 5.96, 2.49, 1.88, 8.24, suppf,
2021-01-28,-1.23, -0.63, -1.13, 2.49, 1.88, 8.27, suppf,
2021-01-29,0.53, 0.42, 2.93, 2.48, 1.88, 8.25, suppf,
2021-01-30,-0.48, 0.43, 3.62, 2.47, 1.86, 8.14, suppf,
2021-01-31,-1.94, -0.32, 0.47, 2.47, 1.87, 8.23, suppf,
2021-02-01,-1.82, -0.18, -5.63, 2.44, 1.87, 8.13, suppf,
2021-02-02,-1.61, -0.15, 1.96, 2.50, 1.88, 8.26, suppf,
2021-02-03,-0.52, -0.46, -7.01, 2.48, 1.89, 8.28, suppf,
2021-02-04,-0.21, 0.62, -6.72, 2.48, 1.91, 8.35, suppf,
2021-02-05,-0.25, -0.37, -1.22, 2.51, 1.92, 8.54, suppf,
2021-02-06,0.43, 0.31, -7.88, 2.46, 1.88, 8.25, suppf,
2021-02-07,-0.73, -0.96, -3.28, 2.51, 1.89, 8.29, suppf,
2021-02-08,0.13, -0.60, -6.72, 2.46, 1.87, 8.21, suppf,
2021-02-09,-0.11, 1.08, -9.49, 2.45, 1.86, 8.14, suppf,
2021-02-10,-0.11, 0.58, -8.29, 2.47, 1.87, 8.23, suppf,
2021-02-11,-0.82, 1.73, -6.18, 2.47, 1.87, 8.22, suppf,
2021-02-12,-2.08, 3.76, -6.29, 2.46, 1.87, 8.20, suppf,
2021-02-13,-1.17, 4.10, -5.94, 2.48, 1.88, 8.20, suppf,
2021-02-14,-1.85, 4.97, -10.59, 2.49, 1.91, 8.41, suppf,
2021-02-15,-6.24, 4.12, 10.46, 2.50, 1.93, 8.58, suppf,
2021-02-16,-5.69, 2.74, 28.25, 2.56, 1.98, 8.86, suppf,
2021-02-17,-0.56, 1.01, -1.00, 2.52, 1.95, 8.67, suppf,
2021-02-18,-0.09, 1.75, -13.80, 2.56, 1.96, 8.65, suppf,
2021-02-19,-2.89, -0.20, 2.73, 2.64, 1.97, 8.84, suppf,
2021-02-20,-0.05, 1.44, 0.21, 2.55, 1.96, 8.79, suppf,
2021-02-21,-1.50, 0.06, -5.74, 2.49, 1.94, 8.56, suppf,
2021-02-22,-1.93, 1.58, -3.41, 2.53, 1.94, 8.58, suppf,
2021-02-23,-1.88, 1.74, 1.45, 2.48, 1.90, 8.35, suppf,
2021-02-24,-0.70, 0.21, -13.54, 2.46, 1.87, 8.14, suppf,
2021-02-25,-1.03, 1.52, -6.87, 2.48, 1.90, 8.27, suppf,
2021-02-26,-0.06, 1.18, -7.11, 2.47, 1.90, 8.27, suppf,
2021-02-27,-1.00, 0.64, 1.64, 2.49, 1.94, 8.41, suppf,
2021-02-28,-1.73, 1.07, -1.97, 2.49, 1.92, 8.36, suppf,
2021-03-01,0.10, 0.16, -5.36, 2.48, 1.93, 8.33, suppf,
2021-03-02,-0.11, -0.68, -1.37, 2.57, 1.94, 8.49, suppf,
2021-03-03,-0.49, -0.35, 1.30, 2.44, 1.86, 8.04, suppf,
2021-03-04,-0.85, -0.42, -5.64, 2.43, 1.87, 8.09, suppf,
2021-03-05,-2.68, -0.28, -12.60, 2.52, 1.92, 8.35, suppf,
2021-03-06,-0.51, 0.35, -0.64, 2.49, 1.90, 8.20, suppf,
2021-03-07,-1.84, -2.13, -8.74, 1.99, 1.47, 7.02, suppf,
2021-03-08,-1.06, -0.87, -8.83, 2.07, 1.50, 7.29, suppf,
2021-03-09,-1.16, -1.13, -4.02, 1.95, 1.45, 6.96, suppf,
2021-03-10,-0.07, -1.13, -1.23, 1.93, 1.43, 6.86, suppf,
2021-03-11,-2.13, -1.47, -10.66, 1.93, 1.44, 6.89, suppf,
2021-03-12,-1.12, 0.42, -8.00, 1.96, 1.46, 6.97, suppf,
2021-03-13,-0.84, -1.26, -9.38, 1.94, 1.45, 6.92, suppf,
2021-03-14,-0.39, 0.12, -5.98, 1.94, 1.45, 6.95, suppf,
2021-03-15,-0.69, -0.69, -4.20, 1.92, 1.44, 6.87, suppf,
2021-03-16,-0.63, -1.28, -2.41, 1.92, 1.44, 6.84, suppf,
2021-03-17,-0.73, -0.47, -4.39, 1.94, 1.45, 6.93, suppf,
2021-03-18,-2.10, -0.66, -1.14, 1.97, 1.50, 7.07, suppf,
2021-03-19,-2.11, -0.93, -6.65, 1.96, 1.50, 7.04, suppf,
2021-03-20,-1.16, -0.44, -5.61, 1.92, 1.44, 6.87, suppf,
2021-03-21,-2.20, 0.00, -4.77, 1.92, 1.44, 6.85, suppf,
2021-03-22,-1.56, 0.79, -7.66, 1.94, 1.45, 6.93, suppf,
2021-03-23,-1.84, 0.51, -9.73, 1.95, 1.46, 6.95, suppf,
2021-03-24,-1.85, 0.18, -4.45, 1.93, 1.45, 6.88, suppf,
2021-03-25,-1.57, -0.09, 3.89, 1.94, 1.45, 6.93, suppf,
2021-03-26,-2.40, 0.08, 0.02, 1.93, 1.45, 6.88, suppf,
2021-03-27,-1.68, 0.02, -6.03, 1.92, 1.45, 6.86, suppf,
2021-03-28,-1.23, -1.10, -6.28, 1.94, 1.46, 6.94, suppf,
2021-03-29,-1.51, -0.86, -4.25, 1.94, 1.45, 6.91, suppf,
2021-03-30,-0.85, 0.04, -7.64, 1.93, 1.45, 6.88, suppf,
2021-03-31,-1.60, -0.48, -7.12, 1.91, 1.45, 6.87, suppf,
2021-04-01,-1.99, -1.21, -6.34, 1.96, 1.48, 6.98, suppf,
2021-04-02,-0.91, -0.93, -1.76, 1.94, 1.46, 6.97, suppf,
2021-04-03,-2.09, -0.48, -5.65, 1.93, 1.47, 7.00, suppf,
2021-04-04,-1.58, -0.67, -6.22, 1.93, 1.46, 6.95, suppf,
2021-04-05,-2.09, -1.36, 1.93, 1.92, 1.46, 6.91, suppf,
2021-04-06,-0.90, -0.56, 0.83, 1.93, 1.46, 6.91, suppf,
2021-04-07,-2.92, -0.26, 2.68, 1.94, 1.46, 6.96, suppf,
2021-04-08,-1.67, 1.28, -1.45, 1.98, 1.48, 7.01, suppf,
2021-04-09,-0.60, -0.89, -4.03, 1.97, 1.49, 7.05, suppf,
2021-04-10,-0.43, -0.61, -2.32, 1.92, 1.46, 6.90, suppf,
2021-04-11,-1.42, 0.28, 1.28, 1.93, 1.46, 6.95, suppf,
2021-04-12,-0.58, -0.69, -6.73, 1.95, 1.51, 7.06, suppf,
2021-04-13,-2.02, -1.01, -2.77, 1.93, 1.50, 6.95, suppf,
2021-04-14,-1.69, -1.67, -5.26, 1.94, 1.51, 7.01, suppf,
2021-04-15,-1.29, 0.04, -0.01, 1.93, 1.50, 6.94, suppf,
2021-04-16,-1.07, 0.70, 0.65, 1.95, 1.52, 7.06, suppf,
2021-04-17,-1.28, 0.37, 1.02, 1.95, 1.52, 7.08, suppf,
2021-04-18,-3.03, -0.54, 0.11, 1.94, 1.51, 7.04, suppf,
2021-04-19,-1.93, -0.42, -0.49, 1.99, 1.57, 7.26, suppf,
2021-04-20,-0.81, -0.06, 0.15, 1.95, 1.53, 7.13, suppf,
2021-04-21,-1.78, -1.61, 2.85, 1.95, 1.51, 7.05, suppf,
2021-04-22,-2.01, -0.71, 7.59, 1.98, 1.58, 7.24, suppf,
2021-04-23,-1.89, -1.22, 8.70, 1.97, 1.58, 7.23, suppf,
2021-04-24,-3.04, -1.02, 6.92, 1.91, 1.46, 6.90, suppf,
2021-04-25,-3.22, -0.62, 9.32, 1.92, 1.46, 6.92, suppf,
2021-04-26,-3.38, 0.63, 7.49, 1.93, 1.46, 6.96, suppf,
2021-04-27,-1.88, -2.08, 5.36, 1.95, 1.51, 7.11, suppf,
2021-04-28,-1.54, 0.26, 1.73, 1.97, 1.54, 7.21, suppf,
2021-04-29,-1.12, -0.01, -4.74, 1.93, 1.47, 6.97, suppf,
2021-04-30,-1.91, -0.37, -5.20, 1.93, 1.47, 7.00, suppf,
2021-05-01,-1.52, -1.84, 7.65, 1.97, 1.50, 7.23, suppf,
2021-05-02,-2.04, -0.79, 7.90, 1.94, 1.48, 7.08, suppf,
2021-05-03,-1.35, -0.75, -2.18, 1.92, 1.47, 6.98, suppf,
2021-05-04,-0.60, -1.15, 0.19, 1.94, 1.47, 7.01, suppf,
2021-05-05,-1.47, -1.08, -1.89, 1.93, 1.46, 6.96, suppf,
2021-05-06,-1.62, -0.85, -3.52, 1.97, 1.50, 7.25, suppf,
2021-05-07,-1.94, -0.80, -2.93, 1.93, 1.47, 6.98, suppf,
2021-05-08,-1.47, -1.37, -4.92, 1.93, 1.46, 6.96, suppf,
2021-05-09,-0.98, -1.06, -4.60, 1.93, 1.47, 6.99, suppf,
2021-05-10,-1.64, -1.23, -2.89, 1.93, 1.47, 7.01, suppf,
2021-05-11,-1.72, -1.62, -3.95, 1.94, 1.48, 7.07, suppf,
2021-05-12,-2.11, -0.89, -5.33, 1.95, 1.47, 7.07, suppf,
2021-05-13,-2.66, -1.77, -4.90, 1.95, 1.47, 7.06, suppf,
2021-05-14,-0.89, -0.74, -7.38, 1.94, 1.47, 7.04, suppf,
2021-05-15,-1.79, -0.87, -1.51, 1.92, 1.46, 6.97, suppf,
2021-05-16,-1.15, -1.31, 1.45, 1.93, 1.47, 7.01, suppf,
2021-05-17,-1.79, -1.26, -6.03, 1.93, 1.49, 7.09, suppf,
2021-05-18,-1.73, 0.29, 1.65, 1.94, 1.47, 7.05, suppf,
2021-05-19,-1.50, -2.55, -1.33, 1.99, 1.48, 7.14, suppf,
2021-05-20,-2.51, -1.51, -0.44, 2.05, 1.53, 7.32, suppf,
2021-05-21,-3.21, -1.81, -1.48, 2.00, 1.51, 7.20, suppf,
2021-05-22,-4.72, -1.35, -2.18, 1.97, 1.49, 7.15, suppf,
2021-05-23,-2.33, -1.38, 0.17, 1.96, 1.48, 7.13, suppf,
2021-05-24,0.27, 0.57, -10.15, 1.95, 1.48, 7.10, suppf,
2021-05-25,-1.56, -0.73, 7.85, 1.96, 1.48, 7.15, suppf,
2021-05-26,-0.93, -0.39, -0.04, 1.94, 1.47, 7.03, suppf,
2021-05-27,-1.32, -0.49, -2.09, 1.96, 1.49, 7.18, suppf,
2021-05-28,-2.83, -0.12, -0.63, 1.99, 1.49, 7.22, suppf,
2021-05-29,-2.17, -1.45, -1.07, 1.94, 1.47, 7.03, suppf,
2021-05-30,-0.92, -0.42, -0.97, 1.95, 1.47, 7.07, suppf,
2021-05-31,-0.52, -1.03, -2.26, 1.94, 1.46, 7.00, suppf,
2021-06-01,-2.03, -0.05, 0.45, 1.96, 1.48, 7.14, suppf,
2021-06-02,-0.79, -0.84, 3.78, 1.96, 1.49, 7.13, suppf,
2021-06-03,-3.02, -0.84, 9.25, 1.98, 1.49, 7.22, suppf,
2021-06-04,-0.89, -0.44, 1.59, 1.96, 1.48, 7.12, suppf,
2021-06-05,-1.18, -0.85, 4.25, 1.97, 1.47, 7.12, suppf,
2021-06-06,-0.49, -1.92, 1.82, 1.94, 1.47, 7.06, suppf,
2021-06-07,-0.61, -1.68, 6.95, 1.96, 1.47, 7.07, suppf,
2021-06-08,-1.39, -2.51, 1.33, 1.96, 1.47, 7.07, suppf,
2021-06-09,-1.55, 0.26, 9.41, 1.97, 1.47, 7.11, suppf,
2021-06-10,-3.16, -1.37, -0.40, 2.02, 1.53, 7.18, suppf,
2021-06-11,-1.32, -1.15, 1.56, 2.01, 1.53, 7.15, suppf,
2021-06-12,-2.01, -1.83, 17.11, 1.99, 1.52, 7.30, suppf,
2021-06-13,-1.33, -0.09, -2.34, 2.00, 1.51, 7.28, suppf,
2021-06-14,-3.00, -1.33, 6.46, 2.06, 1.54, 7.51, suppf,
2021-06-15,0.05, 0.38, 20.39, 2.03, 1.52, 7.35, suppf,
2021-06-16,-0.12, 0.27, -0.08, 1.99, 1.51, 7.23, suppf,
2021-06-17,-1.52, -0.93, 3.20, 1.96, 1.49, 7.12, suppf,
2021-06-18,-0.42, -2.08, -3.28, 1.97, 1.48, 7.09, suppf,
2021-06-19,-0.97, -0.78, 0.88, 1.97, 1.48, 7.13, suppf,
2021-06-20,-0.63, -0.66, 1.60, 1.99, 1.49, 7.19, suppf,
2021-06-21,-0.74, 0.35, 11.61, 1.99, 1.51, 7.23, suppf,
2021-06-22,-0.81, -1.30, 11.46, 2.05, 1.55, 7.49, suppf,
2021-06-23,-0.05, 0.78, 11.24, 2.04, 1.54, 7.38, suppf,
2021-06-24,-1.73, 0.03, 2.01, 2.70, 2.14, 8.97, suppf,
2021-06-25,-1.52, -1.30, 0.04, 1.99, 1.50, 7.16, suppf,
2021-06-26,-0.77, -0.66, 4.22, 1.98, 1.49, 7.08, suppf,
2021-06-27,-0.94, -1.33, 3.14, 1.99, 1.49, 7.08, suppf,
2021-06-28,-2.16, -0.93, 4.51, 2.00, 1.52, 7.26, suppf,
2021-06-29,-2.30, 0.43, 4.17, 2.00, 1.49, 7.12, suppf,
2021-06-30,-2.00, -1.17, 6.98, 2.01, 1.51, 7.21, suppf,
2021-07-01,-1.36, -0.13, 11.14, 2.07, 1.56, 7.49, suppf,
2021-07-02,-2.27, -0.62, 7.39, 2.01, 1.52, 7.21, suppf,
2021-07-03,-1.63, 0.62, 1.46, 2.01, 1.52, 7.26, suppf,
2021-07-04,-1.75, 0.97, 5.00, 2.00, 1.50, 7.16, suppf,
2021-07-05,0.04, 2.39, 1.35, 2.00, 1.49, 7.14, suppf,
2021-07-06,0.58, -0.64, 4.37, 2.01, 1.50, 7.21, suppf,
2021-07-07,-0.07, 0.19, 5.60, 2.00, 1.50, 7.17, suppf,
2021-07-08,-0.98, 0.30, 6.97, 2.00, 1.50, 7.15, suppf,
2021-07-09,-0.68, 1.90, 5.99, 2.04, 1.53, 7.31, suppf,
2021-07-10,-0.75, 1.02, -3.53, 2.00, 1.49, 7.14, suppf,
2021-07-11,-2.06, -0.14, 6.87, 1.99, 1.49, 7.11, suppf,
2021-07-12,-2.34, -0.63, 4.65, 1.99, 1.49, 7.08, suppf,
2021-07-13,-0.78, 0.11, 2.36, 2.00, 1.50, 7.13, suppf,
2021-07-14,-0.71, 0.68, 2.65, 2.00, 1.50, 7.15, suppf,
2021-07-15,-1.68, 0.47, 3.73, 2.04, 1.54, 7.38, suppf,
2021-07-16,0.36, -0.06, 0.75, 2.14, 1.60, 7.64, suppf,
2021-07-17,-0.78, -0.39, -2.46, 2.05, 1.50, 7.28, suppf,
2021-07-18,0.79, -0.86, -2.11, 2.07, 1.52, 7.38, suppf,
2021-07-19,-0.55, 0.40, -3.37, 2.02, 1.53, 7.35, suppf,
2021-07-20,-1.21, 1.13, 2.95, 2.04, 1.53, 7.36, suppf,
2021-07-21,-0.91, -1.05, 2.67, 2.01, 1.52, 7.27, suppf,
2021-07-22,-0.48, 0.16, 3.33, 2.05, 1.55, 7.40, suppf,
2021-07-23,-1.61, 0.36, 2.84, 2.03, 1.53, 7.28, suppf,
2021-07-24,-2.01, -0.72, 0.63, 1.99, 1.50, 7.17, suppf,
2021-07-25,-2.30, -0.63, 4.88, 2.01, 1.51, 7.27, suppf,
2021-07-26,-1.80, 0.74, 2.92, 2.01, 1.51, 7.26, suppf,
2021-07-27,-0.26, -1.44, 4.86, 2.02, 1.51, 7.29, suppf,
2021-07-28,-1.02, 0.03, 1.26, 2.03, 1.52, 7.37, suppf,
2021-07-29,-0.29, 0.63, -4.64, 1.99, 1.50, 7.18, suppf,
2021-07-30,-1.09, 1.55, 0.94, 2.06, 1.54, 7.32, suppf,
2021-07-31,-0.68, -0.11, 2.36, 1.98, 1.50, 7.12, suppf,
2021-08-01,-1.56, 0.38, 3.27, 2.00, 1.50, 7.16, suppf,
2021-08-02,-0.81, 1.12, 2.13, 2.05, 1.53, 7.41, suppf,
2021-08-03,0.48, 0.55, -1.65, 2.00, 1.50, 7.18, suppf,
2021-08-04,-1.17, 0.84, 2.97, 2.02, 1.52, 7.32, suppf,
2021-08-06,-1.54, -0.70, -0.71, 2.05, 1.52, 7.35, suppf,
2021-08-07,-1.51, -0.27, 5.50, 2.00, 1.50, 7.17, suppf,
2021-08-08,-0.27, 0.60, 11.77, 2.03, 1.53, 7.32, suppf,
2021-08-09,-2.47, -0.30, 9.28, 1.99, 1.49, 7.12, suppf,
2021-08-10,-2.07, 0.65, 5.27, 2.00, 1.50, 7.18, suppf,
2021-08-11,-2.12, 0.03, -0.25, 1.99, 1.49, 7.09, suppf,
2021-08-12,-0.41, 0.99, 6.71, 1.99, 1.50, 7.11, suppf,
2021-08-13,0.14, 0.93, -9.51, 1.99, 1.51, 7.15, suppf,
2021-08-14,-2.47, -0.89, 0.33, 1.99, 1.49, 7.07, suppf,
2021-08-15,-0.73, 1.18, 4.62, 1.99, 1.48, 7.06, suppf,
2021-08-16,-0.73, -0.18, -1.92, 2.02, 1.50, 7.21, suppf,
2021-08-17,-2.38, 0.43, 12.32, 2.01, 1.52, 7.26, suppf,
2021-08-18,-2.93, 0.22, -3.29, 1.98, 1.49, 7.08, suppf,
2021-08-19,-1.58, -0.65, -0.33, 1.99, 1.50, 7.10, suppf,
2021-08-20,-1.76, 0.71, 8.10, 1.98, 1.48, 7.04, suppf,
2021-08-21,-2.05, -0.13, 8.31, 2.03, 1.55, 7.44, suppf,
2021-08-22,-0.11, 0.52, 5.56, 2.01, 1.53, 7.22, suppf,
2021-08-23,-1.41, -1.10, 4.93, 2.00, 1.53, 7.23, suppf,
2021-08-24,-0.04, 0.07, -1.07, 1.98, 1.49, 7.09, suppf,
2021-08-25,-0.78, 0.52, 5.26, 1.98, 1.48, 7.04, suppf,
2021-08-26,-0.78, 0.63, 4.59, 1.96, 1.48, 6.98, suppf,
2021-08-27,-1.75, -0.37, 4.71, 1.97, 1.49, 7.05, suppf,
2021-08-28,-0.02, -0.86, 0.59, 1.98, 1.49, 7.07, suppf,
2021-08-29,-0.42, -1.67, -0.10, 1.97, 1.48, 7.04, suppf,
2021-08-30,-1.27, -1.50, 8.78, 1.97, 1.48, 7.02, suppf,
2021-08-31,-1.62, -0.53, 10.71, 1.98, 1.47, 6.98, suppf,
2021-09-01,-1.82, -0.61, 11.01, 1.97, 1.48, 6.99, suppf,
2021-09-02,-0.65, -1.35, 3.61, 1.99, 1.52, 7.17, suppf,
2021-09-03,-2.24, 0.31, 2.93, 2.06, 1.55, 7.32, suppf,
2021-09-04,-1.08, -1.45, 1.68, 2.11, 1.53, 7.41, suppf,
2021-09-05,0.59, 0.49, -0.31, 2.06, 1.50, 7.22, suppf,
2021-09-06,0.23, 0.61, 6.70, 1.97, 1.48, 6.98, suppf,
2021-09-07,-0.78, -0.16, 4.76, 1.98, 1.49, 7.10, suppf,
2021-09-08,-0.54, -0.87, 7.88, 2.02, 1.53, 7.36, suppf,
2021-09-09,-1.30, 1.08, 10.20, 2.00, 1.50, 7.14, suppf,
2021-09-10,-1.72, -0.79, 16.23, 2.00, 1.51, 7.19, suppf,
2021-09-11,-0.49, -1.18, 11.23, 1.99, 1.49, 7.08, suppf,
2021-09-12,0.29, 0.34, 7.43, 1.97, 1.49, 7.04, suppf,
2021-09-13,-1.63, -0.60, 9.08, 1.98, 1.51, 7.12, suppf,
2021-09-14,-0.94, -0.83, 7.90, 1.97, 1.48, 7.02, suppf,
2021-09-15,-1.16, -0.48, 9.24, 1.99, 1.50, 7.15, suppf,
2021-09-16,-0.36, 0.04, 10.92, 1.99, 1.49, 7.10, suppf,
2021-09-17,-1.14, -0.44, 20.22, 1.99, 1.49, 7.08, suppf,
2021-09-18,-1.83, 0.26, 9.72, 2.00, 1.51, 7.21, suppf,
2021-09-19,-1.55, 0.26, 22.49, 1.99, 1.50, 7.15, suppf,
2021-09-20,-0.44, 0.26, 15.38, 1.99, 1.50, 7.13, suppf,
2021-09-21,-1.12, -0.16, 3.46, 1.98, 1.49, 7.07, suppf,
2021-09-22,-0.57, 0.19, 1.96, 2.00, 1.50, 7.16, suppf,
2021-09-23,-0.80, -0.59, 7.56, 1.97, 1.47, 7.00, suppf,
2021-09-24,-0.57, -1.04, 0.20, 2.07, 1.56, 7.41, suppf,
2021-09-25,-1.85, -0.75, 7.21, 1.98, 1.49, 7.07, suppf,
2021-09-26,-1.37, -2.05, 12.83, 1.98, 1.48, 7.06, suppf,
2021-09-27,-3.18, 0.33, 23.67, 2.00, 1.50, 7.15, suppf,
2021-09-28,-2.82, -0.90, 9.97, 1.97, 1.48, 7.03, suppf,
2021-09-29,-2.03, -1.06, 15.50, 1.98, 1.49, 7.07, suppf,
2021-09-30,-1.36, -0.70, 7.44, 2.00, 1.49, 7.14, suppf,
2021-10-01,-1.39, -0.96, 7.25, 2.01, 1.50, 7.22, suppf,
2021-10-02,-0.57, -0.44, 7.30, 1.98, 1.49, 7.10, suppf,
2021-10-03,-1.13, -0.60, 12.10, 1.98, 1.49, 7.09, suppf,
2021-10-04,-0.95, -0.75, 8.50, 1.99, 1.49, 7.10, suppf,
2021-10-05,-0.85, -0.01, 10.79, 1.99, 1.49, 7.11, suppf,
2021-10-06,-2.10, -1.04, 7.05, 2.00, 1.50, 7.17, suppf,
2021-10-07,0.11, -1.06, 11.89, 1.98, 1.49, 7.08, suppf,
2021-10-08,-1.13, -0.55, 10.06, 1.98, 1.49, 7.07, suppf,
2021-10-09,-1.37, -0.44, 14.33, 1.97, 1.47, 6.98, suppf,
2021-10-10,-2.50, -0.65, 16.06, 2.00, 1.51, 7.24, suppf,
2021-10-11,-2.18, -0.97, 11.27, 1.98, 1.48, 7.04, suppf,
2021-10-12,-0.65, -1.09, 4.72, 1.98, 1.48, 7.06, suppf,
2021-10-13,-1.84, -0.75, 8.50, 1.99, 1.48, 7.09, suppf,
2021-10-14,-2.95, -0.90, 20.48, 1.95, 1.47, 6.96, suppf,
2021-10-15,-1.35, -0.35, 8.43, 1.99, 1.49, 7.09, suppf,
2021-10-16,-0.18, 0.06, 4.87, 1.99, 1.49, 7.14, suppf,
2021-10-17,-1.31, -0.59, 10.13, 1.98, 1.48, 7.05, suppf,
2021-10-18,0.08, -0.94, 14.88, 1.99, 1.49, 7.09, suppf,
2021-10-19,-0.36, -0.13, 10.60, 1.96, 1.48, 6.98, suppf,
2021-10-20,-3.57, -0.91, 14.13, 2.01, 1.54, 7.21, suppf,
2021-10-21,-1.16, 1.44, 16.74, 2.04, 1.56, 7.36, suppf,
2021-10-22,-3.43, 0.65, 16.26, 2.02, 1.53, 7.34, suppf,
2021-10-23,-1.74, -0.02, 26.11, 2.00, 1.49, 7.09, suppf,
2021-10-24,-5.08, -0.89, 36.87, 2.04, 1.56, 7.45, suppf,
2021-10-25,-1.72, -1.36, 26.17, 1.98, 1.48, 7.03, suppf,
2021-10-26,-2.63, -1.99, 26.69, 1.98, 1.49, 7.07, suppf,
2021-10-27,-0.13, -0.38, 10.85, 2.04, 1.51, 7.28, suppf,
2021-10-28,-1.92, -0.07, 18.41, 2.05, 1.50, 7.25, suppf,
2021-10-29,-2.14, 1.02, 19.76, 2.05, 1.50, 7.24, suppf,
2021-10-30,-0.95, -2.33, 22.81, 2.03, 1.50, 7.23, suppf,
2021-10-31,-0.78, -0.98, 23.77, 2.04, 1.50, 7.20, suppf,
2021-11-01,-0.45, -1.10, 25.06, 2.04, 1.51, 7.26, suppf,
2021-11-02,-2.02, -1.67, 22.84, 2.05, 1.51, 7.28, suppf,
2021-11-03,-2.90, -0.49, 14.05, 2.05, 1.50, 7.25, suppf,
2021-11-04,-3.87, 1.11, 26.53, 2.07, 1.52, 7.35, suppf,
2021-11-05,-3.12, -1.50, 17.64, 2.03, 1.49, 7.14, suppf,
2021-11-06,-3.75, -0.72, 5.33, 2.03, 1.49, 7.20, suppf,
2021-11-07,-1.36, -1.12, 7.81, 2.02, 1.49, 7.14, suppf,
2021-11-08,-0.86, -0.68, 5.99, 1.98, 1.48, 7.06, suppf,
2021-11-09,-3.88, -0.65, 7.05, 1.97, 1.49, 7.07, suppf,
2021-11-10,-1.61, -0.80, 11.83, 1.97, 1.48, 7.04, suppf,
2021-11-11,-3.86, 1.93, 13.47, 2.00, 1.52, 7.24, suppf,
2021-11-12,-2.01, 1.93, 7.49, 2.03, 1.56, 7.36, suppf,
2021-11-13,-2.25, 1.34, 15.80, 2.09, 1.57, 7.48, suppf,
2021-11-14,-0.55, 1.84, 10.15, 2.09, 1.57, 7.45, suppf,
2021-11-15,-0.67, -0.15, 2.80, 2.00, 1.51, 7.19, suppf,
2021-11-16,-1.18, -0.56, 12.16, 2.00, 1.52, 7.22, suppf,
2021-11-17,-1.40, -0.66, 1.18, 1.96, 1.48, 7.00, suppf,
2021-11-18,-1.68, -1.01, 2.70, 1.97, 1.49, 7.11, suppf,
2021-11-19,-2.44, 0.09, 12.52, 1.99, 1.50, 7.15, suppf,
2021-11-20,-1.71, 0.27, 3.96, 1.97, 1.47, 6.98, suppf,
2021-11-21,-1.06, -0.25, -0.76, 1.97, 1.48, 7.05, suppf,
2021-11-22,-0.93, -0.40, -5.64, 1.96, 1.48, 6.99, suppf,
2021-11-23,-1.82, -1.42, 2.55, 1.96, 1.48, 7.02, suppf,
2021-11-24,-1.15, 0.35, 1.03, 1.97, 1.47, 7.03, suppf,
2021-11-25,-0.74, 0.98, -8.59, 1.98, 1.47, 7.03, suppf,
2021-11-26,-0.59, 2.01, -1.14, 1.99, 1.48, 7.09, suppf,
2021-11-27,-2.76, -3.35, 18.50, 1.99, 1.49, 7.14, suppf,
2021-11-28,-2.97, -1.57, 14.81, 1.97, 1.50, 7.11, suppf,
2021-11-29,-0.62, 0.70, 2.57, 1.97, 1.49, 7.09, suppf,
2021-11-30,-1.02, -1.25, -2.25, 2.01, 1.50, 7.18, suppf,
2021-12-01,-1.15, -1.09, -0.25, 1.98, 1.47, 7.02, suppf,
2021-12-02,-1.78, 0.34, 4.10, 2.01, 1.48, 7.12, suppf,
2021-12-03,0.59, -0.45, -6.63, 2.09, 1.53, 7.45, suppf,
2021-12-04,-1.25, -0.19, -4.52, 2.02, 1.50, 7.20, suppf,
2021-12-05,-1.95, 0.19, 6.33, 2.03, 1.50, 7.27, suppf,
2021-12-06,-0.43, -0.38, -2.73, 2.04, 1.49, 7.25, suppf,
2021-12-07,-3.91, 0.22, 9.68, 2.07, 1.56, 7.62, suppf,
2021-12-08,-1.88, -2.71, 12.19, 2.04, 1.51, 7.33, suppf,
2021-12-09,-0.56, -1.46, 8.25, 2.10, 1.51, 7.32, suppf,
2021-12-10,-1.13, -0.90, 11.97, 2.17, 1.53, 7.44, suppf,
2021-12-11,-1.41, -0.69, 17.86, 2.02, 1.48, 7.17, suppf,
2021-12-12,-1.78, -1.87, 10.65, 2.04, 1.49, 7.24, suppf,
2021-12-13,-1.03, -2.42, 5.93, 2.01, 1.50, 7.21, suppf,
2021-12-14,-0.77, -1.73, 5.23, 2.03, 1.50, 7.27, suppf,
2021-12-15,-0.35, -0.47, 4.80, 2.06, 1.54, 7.43, suppf,
2021-12-16,-0.61, -1.61, 4.16, 2.07, 1.55, 7.51, suppf,
2021-12-17,-0.93, -0.55, 6.56, 2.11, 1.58, 7.68, suppf,
2021-12-18,-0.07, 0.00, 1.64, 2.07, 1.55, 7.50, suppf,
2021-12-19,-1.02, -0.96, 10.45, 2.07, 1.55, 7.46, suppf,
2021-12-20,-2.42, -2.31, 7.20, 2.07, 1.55, 7.53, suppf,
2021-12-21,-1.18, -1.32, 1.22, 2.05, 1.53, 7.38, suppf,
2021-12-22,-1.70, -1.40, 6.95, 2.06, 1.53, 7.40, suppf,
2021-12-23,-1.63, -1.61, 9.71, 2.04, 1.52, 7.34, suppf,
2021-12-24,0.35, -1.96, 14.64, 2.06, 1.54, 7.44, suppf,
2021-12-25,0.59, -1.34, 12.63, 2.07, 1.55, 7.50, suppf,
2021-12-26,-0.08, -0.74, 15.72, 2.09, 1.56, 7.61, suppf,
2021-12-27,-1.70, -0.57, 12.25, 2.10, 1.56, 7.63, suppf,
2021-12-28,-1.58, -0.10, 10.12, 2.07, 1.53, 7.50, suppf,
2021-12-29,-5.57, 1.13, 17.84, 2.08, 1.55, 7.59, suppf,
2021-12-30,-5.54, 0.38, 17.51, 2.09, 1.56, 7.68, suppf,
2021-12-31,-7.21, 2.44, 14.06, 2.09, 1.56, 7.64, suppf,
2022-01-01,-6.28, 1.70, 9.73, 2.11, 1.56, 7.72, suppf,
2022-01-02,0.10, -1.39, -1.86, 2.07, 1.52, 7.45, suppf,
2022-01-03,-1.63, -0.91, -0.56, 2.05, 1.49, 7.29, suppf,
2022-01-04,-0.24, 0.42, 2.58, 2.04, 1.50, 7.28, suppf,
2022-01-05,-1.23, 1.70, 8.24, 2.08, 1.55, 7.57, suppf,
2022-01-06,-3.09, 4.73, 20.31, 2.05, 1.53, 7.45, suppf,
2022-01-07,-1.05, -0.70, 13.55, 2.08, 1.53, 7.50, suppf,
2022-01-08,0.12, 1.40, 3.38, 2.06, 1.51, 7.38, suppf,
2022-01-09,1.35, 1.65, -13.96, 2.18, 1.57, 7.81, suppf,
2022-01-10,-0.32, -0.91, -9.45, 2.04, 1.52, 7.36, suppf,
2022-01-11,-1.69, 1.77, -6.57, 2.03, 1.51, 7.29, suppf,
2022-01-12,-2.32, -0.64, -3.53, 2.06, 1.51, 7.39, suppf,
2022-01-13,-2.24, 0.19, -7.27, 2.05, 1.51, 7.38, suppf,
2022-01-14,-1.78, 0.97, -5.37, 2.02, 1.48, 7.18, suppf,
2022-01-15,-1.13, 0.41, -10.07, 2.03, 1.48, 7.19, suppf,
2022-01-16,-0.92, 0.64, -4.68, 2.02, 1.49, 7.22, suppf,
2022-01-17,-1.00, 0.98, -4.79, 2.04, 1.49, 7.26, suppf,
2022-01-18,0.12, -0.89, -6.47, 2.04, 1.49, 7.25, suppf,
2022-01-19,-0.74, 0.54, -6.10, 2.04, 1.49, 7.25, suppf,
2022-01-20,-2.38, 0.38, 4.04, 2.04, 1.51, 7.30, suppf,
2022-01-21,-0.36, 0.64, -6.02, 2.04, 1.50, 7.31, suppf,
2022-01-22,-1.19, 0.34, -5.49, 2.02, 1.49, 7.20, suppf,
2022-01-23,-0.98, 1.06, -3.77, 2.04, 1.49, 7.23, suppf,
2022-01-24,-0.63, 0.44, -2.42, 2.04, 1.49, 7.24, suppf,
2022-01-25,-0.78, -0.67, -3.39, 2.02, 1.48, 7.14, suppf,
2022-01-26,-1.52, 0.68, -0.34, 2.03, 1.49, 7.25, suppf,
2022-01-27,0.22, 0.31, -5.35, 1.97, 1.47, 7.09, suppf,
2022-01-28,0.50, -0.07, -3.70, 2.00, 1.47, 7.13, suppf,
2022-01-29,-0.28, -0.66, -6.92, 1.98, 1.47, 7.08, suppf,
2022-01-30,-1.09, -1.05, -0.42, 2.00, 1.48, 7.16, suppf,
2022-01-31,-1.15, 0.21, 2.57, 1.97, 1.46, 7.07, suppf,
2022-02-01,-1.08, 0.28, -2.54, 1.97, 1.46, 7.05, suppf,
2022-02-02,-1.28, -0.25, -6.37, 1.98, 1.45, 7.03, suppf,
2022-02-03,-0.44, 0.01, -5.88, 1.99, 1.45, 7.05, suppf,
2022-02-04,-0.96, -0.44, -10.51, 1.99, 1.48, 7.12, suppf,
2022-02-05,-0.42, -0.71, -10.34, 1.96, 1.44, 6.94, suppf,
2022-02-06,-1.08, -0.60, -5.64, 1.99, 1.49, 7.25, suppf,
2022-02-07,-0.53, -0.25, -6.99, 2.01, 1.50, 7.28, suppf,
2022-02-08,-0.17, -1.52, -10.07, 2.01, 1.49, 7.19, suppf,
2022-02-09,1.70, -1.05, -11.16, 2.02, 1.51, 7.26, suppf,
2022-02-10,-0.26, -0.17, -5.09, 1.98, 1.46, 7.02, suppf,
2022-02-11,-0.33, -0.28, -6.60, 1.97, 1.47, 7.06, suppf,
2022-02-12,-1.62, 0.32, 1.89, 1.97, 1.47, 7.06, suppf,
2022-02-13,-0.83, 0.03, -3.68, 1.99, 1.48, 7.13, suppf,
2022-02-14,-1.48, 0.95, 1.40, 2.00, 1.48, 7.13, suppf,
2022-02-15,-1.66, -0.56, -2.38, 2.04, 1.49, 7.19, suppf,
2022-02-16,-1.05, -0.23, 3.41, 1.96, 1.45, 6.96, suppf,
2022-02-17,-0.10, -0.34, -2.49, 1.96, 1.45, 6.96, suppf,
2022-02-18,-0.22, 0.39, 0.14, 1.97, 1.47, 7.07, suppf,
2022-02-19,-0.86, 0.65, -1.31, 1.99, 1.47, 7.09, suppf,